{"data":{"norad_id":64537,"epoch":"2026-05-25T00:58:10.806240Z","epoch_age_seconds":71022,"freshness":"FRESH","line1":"1 64537U 25135K   26145.04040285  .00018910  00000+0  81332-3 0  9990","line2":"2 64537  97.4679 260.6904 0001144 212.7735 147.3430 15.22685702 51357","mean_motion":15.22685702,"eccentricity":0.0001144,"inclination_deg":97.4679,"raan_deg":260.6904,"arg_perigee_deg":212.7735,"mean_anomaly_deg":147.343,"bstar":0.00081332,"rev_number":5135,"period_min":94.569745950107,"perigee_km":496.95702506409,"apogee_km":498.53022655128,"semimajor_km":6875.8806258077,"source":"CELESTRAK","updated_at":"2026-05-25T13:38:04.582181Z"}}